STARLINK-33632, 63577

Orbit data source: Space-Track

STARLINK-33632, 63577 is a payload satellite in LEO that was launched on Mon, 14 Apr 2025 UTC via an FALCON 9 launch vehicle from the Air Force Eastern Test Range (AFETR). Payload-class satellites include a variety of spacecraft equipped with specific instruments for various scientific and technological missions. These include communications satellites like Starlink; space stations such as the ISS; scientific satellites like the Hubble; Earth observation satellites from companies like Planet Labs, Umbra, and HawkEye 360; GPS; miniature CubeSats for education and research; and military/defense satellites.

Loading next visibility...
Identifier
63577, 2025-076J
Orbit
LEO
Last TLE update
11 hours ago
Origin
Manufacturer
SpaceX/Seattle
Mission
Operational spacecraft
Bus & Motor
STARLINK V2MO, Unknown motor
Mass
575 kg wet, ~530 kg dry
Launch date (UTC)
2025-04-14 (1 month ago)
Launch vehicle
FALCON 9
Launch site
Air Force Eastern Test Range (AFETR)
Object type
Payload
Rocket body
Debris
Shape & HBR
Unknown
Radar Cross Section
Large (>1 m²)

Expand to show TLE details & history

TLE from 11 hours ago
0 STARLINK-33632
1 63577U 25076J   25140.25002315 -.00024472  00000-0 -58026-3 0  9993
2 63577  42.9995 181.7349 0001289 274.3047 303.4583 15.40709435  6873
Epoch: 2025-05-20T06:00Z
TLE epoch observation values (Epoch: 2025-05-20T06:00:02Z)
Latitude
-24.8477°
Longitude
63.16894°
Altitude
449.618 km
Speed
7.643 km/s
True Right ascension
02h 05m 18s
True Declination
-24° 42' 39"
Sunlit
Object was in daylight at epoch
Visualization orbit readout
Latitude
-41.37946°
Longitude
100.89172°
Altitude
455.869 km
Speed
7.64 km/s
Apparent Right ascension
09h 01m 46s
Apparent Declination
-68° 14' 10"
Sunlit
Object is in daylight
Visualization observer readout
Local Sidereal Time
01:57:07
Azimuth
151.136° SSE
Elevation
-42.461°
Doppler factor
1
Orbital elements
Apogee altitude
446.85 km
Perigee altitude
445.091 km
Semi-major axis
6,824.108 km
Eccentricity
0.00013
Inclination
42.9995°
RAAN
181.7349°
Arg. of periapsis
274.3047°
True anomaly
Unknown
Mean anomaly
303.4583°
Eccentric anomaly
Unknown
Mean motion
3.85012 °/min
Orbital period
93.5 mins
BSTAR
-0.00058026
Loading maneuver chart data...
Loading SW <> Apogee altitude chart data...
Loading historical data...
Loading historical data...
Loading historical data...
Loading historical data...
Loading historical data...
Loading historical data...
Loading historical data...

STARLINK-33632 Visibility forecast

Observer location: undefined°, undefined°

Span
Click to sort rows by Start time (UTC) header in descending order
Start Az.
Max El. time (UTC)
Max El. Az.
Max El.
End time (UTC)
End Az.
6 mins2025-05-21 06:10:10.452Z226.009° WSW2025-05-21 06:13:10.452Z152.289° SSE36.068°2025-05-21 06:16:10.452Z80.781° E
5 mins2025-05-21 07:49:10.452Z276.953° WNW2025-05-21 07:51:10.452Z346.705° N40.259°2025-05-21 07:54:10.452Z68.927° E
5 mins2025-05-21 09:27:10.452Z294.008° NW2025-05-21 09:29:10.452Z339.877° N38.061°2025-05-21 09:32:10.452Z83.889° E
4 mins2025-05-21 11:06:10.452Z268.499° W2025-05-21 11:07:10.452Z237.966° WSW36.814°2025-05-21 11:10:10.452Z131.59° SE
|